[[[{"header":{"parameterUnit":"kt","parameterCategory":2,"dx":1,"dy":1,"la1":30.253999710083008,"la2":30.299108505249023,"lo1":-89.0895004272461,"lo2":-89.04439544677734,"nx":28,"ny":28,"refTime":"2022-09-29T21:00:00:Z","depth":0,"parameterNumber":1,"parameterNumberName":"U-component_of_WINDS"},"data":[1.8429,1.8292,1.8285,1.8124,1.8091,1.7977,1.7934,1.7877,1.783,1.7692,1.7611,1.7588,1.7535,1.7434,1.7343,1.7334,1.7291,1.7248,1.7242,1.7453,1.748,1.7507,1.7536,1.7242,1.7242,1.702,1.7018,1.7017,1.8577,1.8543,1.8459,1.8371,1.8296,1.8335,1.8267,1.82,1.8097,1.804,1.7961,1.7838,1.774,1.7702,1.7604,1.7535,1.7543,1.7508,1.7506,1.7495,1.7723,1.7754,1.7502,1.7502,1.7502,1.7502,1.7502,1.7503,1.8844,1.8764,1.8707,1.8614,1.8569,1.851,1.843,1.8406,1.8321,1.8222,1.8231,1.8114,1.8052,1.7933,1.789,1.7796,1.7832,1.7789,1.7775,1.7761,1.7743,1.8045,1.7781,1.7782,1.7782,1.7783,1.7783,0,1.9034,1.9033,1.8953,1.8869,1.8802,1.8736,1.8674,1.8626,1.8622,1.8551,1.8448,1.8387,1.8266,1.8163,1.8073,1.8037,1.806,1.8067,1.8034,1.8019,1.8018,1.8005,1.8365,1.8071,1.8074,1.8075,1.8077,1.8078,1.9291,1.9202,1.9142,1.9085,1.9051,1.8961,1.8905,1.8909,1.8849,1.8772,1.87,1.8602,1.8522,1.8357,1.8325,1.8233,1.8241,1.8128,1.8226,1.8219,1.8224,1.8224,1.821,1.8104,1.81,1.8098,1.8096,0,1.9434,1.9426,1.9286,1.9235,1.9219,1.9124,1.9078,1.8998,1.8985,1.8871,1.8845,1.8819,1.8717,1.8705,1.8587,1.8581,1.8412,1.843,1.8431,1.8429,1.8318,1.8324,1.7981,1.7931,1.825,1.8248,1.8245,0,1.9644,1.9528,1.952,1.9439,1.9309,1.9317,1.9187,1.9161,1.9111,1.9022,1.9054,1.8969,1.8968,1.888,1.8874,1.8736,1.8717,1.87,1.8697,1.869,1.869,1.8647,1.8655,1.871,1.8712,1.8714,1.8715,0,1.986,1.9725,1.9596,1.9562,1.9495,1.9434,1.9403,1.9348,1.9293,1.9221,1.9184,1.91,1.905,1.8983,1.8973,1.904,1.8809,1.8898,1.879,1.8789,1.873,1.8731,1.8442,1.8717,1.8718,1.8718,1.8719,0,2.0024,1.9956,1.9774,1.9717,1.968,1.9597,1.9513,1.944,1.938,1.937,1.9314,1.933,1.9217,1.9304,1.9144,1.9231,1.918,1.9157,1.915,1.9127,1.9222,1.9046,1.8783,1.8748,1.9121,1.9124,1.9127,0,2.0267,2.0084,2.0089,1.9916,1.9828,1.9866,1.9773,1.9721,1.9701,1.9621,1.96,1.9508,1.9572,1.954,1.9465,1.9435,1.9323,1.9452,1.9322,1.9317,1.9325,1.9086,1.9043,1.8845,1.9171,1.9166,1.9163,0,2.0454,2.0378,2.0347,2.0306,2.0242,2.017,2.0066,1.9978,1.9923,1.9865,1.977,1.9648,1.9687,1.9636,1.9641,1.9562,1.9399,1.9614,1.9612,1.9566,1.9196,1.9154,1.9121,1.9419,1.9414,1.941,1.9197,0,2.0684,2.0594,2.0515,2.0431,2.0375,2.027,2.0259,2.0201,2.0211,2.0192,2.006,2.0014,1.9922,1.9887,1.9896,1.9724,1.9747,1.9791,1.9866,1.9714,1.9642,1.9614,1.9973,1.9975,1.9977,1.9979,0,0,2.0912,2.0783,2.0793,2.0693,2.0645,2.0686,2.0572,2.0531,2.0445,2.0409,2.0454,2.0271,2.0231,2.0069,2.0021,1.9989,1.9952,2.0007,1.9789,1.9768,1.9749,1.9673,1.9644,1.9982,1.9983,1.9983,1.9984,0,2.0992,2.096,2.0852,2.081,2.0748,2.0735,2.071,2.0654,2.0637,2.0512,2.0541,2.0461,2.0318,2.0267,2.0222,2.003,2.0051,2.0005,1.99,1.9809,1.9785,1.9765,1.9685,1.9658,1.9988,1.9988,1.9988,0,2.1165,2.1127,2.1076,2.0976,2.0935,2.0846,2.0925,2.083,2.0762,2.0807,2.068,2.0652,2.0587,2.0441,2.0375,2.0411,2.0141,2.0229,2.0216,2.0205,2.0115,2.0087,2.0062,2.0389,2.039,2.0392,0,0,2.1234,2.1153,2.1112,2.0992,2.0965,2.0945,2.0898,2.0902,2.0845,2.0822,2.0786,2.0727,2.0643,2.0587,2.0508,2.0351,2.0332,2.0278,2.0259,2.0244,2.0224,2.013,2.0103,2.0397,2.0397,2.0397,0,0,2.1265,2.1214,2.1235,2.1095,2.1042,2.099,2.0915,2.0938,2.0866,2.0876,2.0876,2.086,2.0725,2.0696,2.077,2.0531,2.0608,2.059,2.0554,2.053,2.0511,2.0516,2.0838,0,0,0,0,0,2.134,2.1221,2.1241,2.1216,2.1089,2.0981,2.0964,2.0963,2.1016,2.0956,2.0929,2.0959,2.0735,2.0801,2.0774,2.0688,2.0467,2.0455,2.0443,2.036,2.0335,2.0314,0,0,0,0,0,0,2.133,2.13,2.1244,2.1188,2.1159,2.0985,2.1073,2.1069,2.1022,2.103,2.0964,2.0957,2.0952,2.0815,2.079,2.0708,2.0846,2.0462,2.0452,2.0442,2.0351,2.0331,2.0313,0,0,0,0,0,2.1323,2.1298,2.1096,2.1189,2.1164,2.1135,2.1078,2.1075,2.1038,2.0996,2.0991,2.1041,2.095,2.0929,2.08,2.0719,2.0863,2.0854,2.0455,2.0447,2.044,2.0341,0,0,0,0,0,0,2.1317,2.1294,2.1091,2.1083,2.1235,2.1144,2.1131,2.108,2.1008,2.1001,2.1075,2.1081,2.0947,2.0932,2.0915,2.0723,2.0877,2.0867,2.0862,2.0449,2.0443,2.0437,0,0,0,0,0,0,2.1307,2.1287,2.1087,2.1144,2.1143,2.1153,2.1141,2.1032,2.1006,2.109,2.1094,2.1078,2.097,2.0932,2.092,2.075,2.0887,2.0878,2.0872,2.0868,2.0444,2.0439,0,0,0,0,0,0,2.1298,2.1281,2.1147,2.1145,2.1145,2.1057,2.1056,2.0925,2.1059,2.1093,2.1071,2.1076,2.0969,2.0957,2.0923,2.0758,2.0752,2.0887,2.0881,2.0877,2.0874,0,0,0,0,0,0,0,2.1291,2.1408,2.1137,2.1146,2.1146,2.1011,2.1009,2.1007,2.106,2.1065,2.107,2.1074,2.0937,2.0927,2.0918,2.0764,0,0,2.0888,2.0883,0,0,0,0,0,0,0,0,2.1415,2.1409,2.1137,2.1136,2.1134,2.1011,2.1009,2.1007,2.1061,2.1065,2.1069,2.1072,2.0934,2.0927,2.0919,0,0,0,0,0,0,0,0,0,0,0,0,0,0,0,2.1137,2.1136,0,2.1011,2.1009,2.1008,2.1062,2.1065,2.1068,2.1071,2.0932,2.0926,2.0919,0,0,0,0,0,0,0,0,0,0,0,0,0,0,0,0,0,0,0,0,0,0,0,0,0,0,0,0,0,0,0,0,0,0,0,0,0,0,0,0,0,0,0,0,0,0,0,0,0,0,0,0,0,0,0,0,0,0,0,0,0,0,0,0,0,0,0,0,0]}],[{"header":{"parameterUnit":"kt","parameterCategory":2,"dx":1,"dy":1,"la1":30.253999710083008,"la2":30.299108505249023,"lo1":-89.0895004272461,"lo2":-89.04439544677734,"nx":28,"ny":28,"refTime":"2022-09-29T21:00:00:Z","depth":0,"parameterNumber":2,"parameterNumberName":"V-component_of_WINDS"},"data":[-8.8235,-8.8503,-8.8542,-8.8865,-8.8954,-8.918,-8.9274,-8.9397,-8.9505,-8.9778,-8.9942,-9.0006,-9.0127,-9.033,-9.0508,-9.0532,-9.0605,-9.0671,-9.0688,-9.0357,-9.0313,-9.0272,-9.0211,-9.0687,-9.0687,-9.1026,-9.1029,-9.1032,-8.7986,-8.8077,-8.8259,-8.8462,-8.8619,-8.8577,-8.8734,-8.8867,-8.9071,-8.9206,-8.9369,-8.9612,-8.9808,-8.9909,-9.0103,-9.0227,-9.0218,-9.0277,-9.0269,-9.0288,-8.9935,-8.987,-9.0281,-9.0281,-9.0281,-9.0281,-9.0281,-9.0281,-8.7542,-8.7702,-8.7847,-8.8046,-8.8158,-8.8293,-8.8452,-8.8528,-8.8706,-8.8916,-8.8926,-8.9156,-8.9297,-8.955,-8.9644,-8.9823,-8.9764,-8.984,-8.986,-8.9878,-8.9894,-8.9398,-8.9858,-8.9857,-8.9856,-8.9855,-8.9854,0,-8.7229,-8.7251,-8.7429,-8.7619,-8.7766,-8.7916,-8.806,-8.8159,-8.8216,-8.836,-8.8573,-8.8701,-8.8954,-8.9157,-8.9347,-8.943,-8.94,-8.9402,-8.9454,-8.9453,-8.9427,-8.9443,-8.8865,-8.9388,-8.9384,-8.9381,-8.9379,-8.9378,-8.6784,-8.6967,-8.7137,-8.7257,-8.7346,-8.7539,-8.7661,-8.7698,-8.7826,-8.8008,-8.8146,-8.835,-8.8516,-8.8848,-8.8934,-8.9122,-8.911,-8.9305,-8.9138,-8.9129,-8.9113,-8.9102,-8.912,-8.9337,-8.9342,-8.9346,-8.935,0,-8.653,-8.6593,-8.6887,-8.7038,-8.7082,-8.727,-8.7399,-8.7559,-8.7615,-8.7844,-8.7899,-8.7988,-8.8195,-8.825,-8.8497,-8.8519,-8.8828,-8.8811,-8.8779,-8.8778,-8.8958,-8.8941,-8.9535,-8.9615,-8.9122,-8.9127,-8.9131,0,-8.6175,-8.6413,-8.6492,-8.666,-8.6924,-8.6956,-8.7216,-8.7291,-8.7414,-8.7594,-8.7571,-8.774,-8.7784,-8.7961,-8.7994,-8.8255,-8.8302,-8.8334,-8.834,-8.8337,-8.8333,-8.8405,-8.8382,-8.8347,-8.8344,-8.8341,-8.8338,0,-8.5771,-8.6092,-8.6365,-8.6448,-8.6633,-8.676,-8.6843,-8.6981,-8.7101,-8.7265,-8.7343,-8.7531,-8.7634,-8.7779,-8.782,-8.7705,-8.8141,-8.7991,-8.8174,-8.8174,-8.8269,-8.8262,-8.8775,-8.8335,-8.8334,-8.8333,-8.8332,0,-8.5494,-8.5661,-8.6048,-8.6201,-8.6284,-8.6463,-8.6651,-8.6818,-8.6965,-8.6998,-8.7127,-8.7118,-8.7352,-8.7198,-8.752,-8.7358,-8.7461,-8.7513,-8.7527,-8.7552,-8.7379,-8.7661,-8.8143,-8.8195,-8.7573,-8.7567,-8.7562,0,-8.5014,-8.5421,-8.5451,-8.5817,-8.6013,-8.5973,-8.6173,-8.6305,-8.6366,-8.6539,-8.6604,-8.6802,-8.67,-8.6769,-8.6921,-8.6997,-8.7207,-8.697,-8.7217,-8.7226,-8.7179,-8.7624,-8.7682,-8.8031,-8.7481,-8.749,-8.7496,0,-8.465,-8.4874,-8.4938,-8.5034,-8.5215,-8.5379,-8.5608,-8.5811,-8.5925,-8.6076,-8.6269,-8.6547,-8.6481,-8.6596,-8.6609,-8.6764,-8.7066,-8.6672,-8.6676,-8.6741,-8.7446,-8.75,-8.7558,-8.7039,-8.7049,-8.7057,-8.7432,0,-8.4217,-8.4429,-8.4603,-8.4816,-8.4951,-8.5184,-8.5245,-8.5378,-8.5376,-8.5435,-8.5719,-8.5843,-8.6049,-8.613,-8.613,-8.6469,-8.6421,-8.6348,-8.6203,-8.6494,-8.662,-8.6671,-8.6012,-8.6008,-8.6004,-8.6002,0,0,-8.3742,-8.4047,-8.4074,-8.4298,-8.4414,-8.437,-8.4613,-8.472,-8.4939,-8.5019,-8.4938,-8.535,-8.5454,-8.5792,-8.5888,-8.5972,-8.6037,-8.5934,-8.6355,-8.6395,-8.6431,-8.6564,-8.6616,-8.5996,-8.5995,-8.5993,-8.5992,0,-8.3597,-8.3706,-8.3947,-8.4059,-8.4227,-8.4277,-8.4335,-8.4493,-8.4542,-8.4822,-8.4781,-8.4958,-8.5287,-8.5402,-8.5503,-8.5894,-8.5853,-8.5952,-8.6143,-8.632,-8.6364,-8.6402,-8.6541,-8.6591,-8.5984,-8.5985,-8.5985,0,-8.3249,-8.3366,-8.3489,-8.3751,-8.386,-8.4062,-8.3925,-8.4145,-8.4295,-8.4235,-8.4513,-8.459,-8.4749,-8.5062,-8.5204,-8.5135,-8.5682,-8.552,-8.5543,-8.556,-8.5734,-8.5786,-8.5833,-8.5219,-8.5216,-8.5214,0,0,-8.3115,-8.3312,-8.3449,-8.3724,-8.3795,-8.3875,-8.3988,-8.3999,-8.4144,-8.4202,-8.43,-8.4441,-8.4632,-8.4757,-8.494,-8.5275,-8.531,-8.5423,-8.546,-8.5489,-8.5522,-8.5704,-8.5756,-8.5203,-8.5202,-8.5202,0,0,-8.3051,-8.322,-8.3194,-8.352,-8.366,-8.3812,-8.3978,-8.3948,-8.4119,-8.4099,-8.4126,-8.4165,-8.4458,-8.4535,-8.4381,-8.4889,-8.4744,-8.4782,-8.4828,-8.4875,-8.491,-8.4885,-8.4258,0,0,0,0,0,-8.2933,-8.3199,-8.3173,-8.3237,-8.3568,-8.3827,-8.3869,-8.3898,-8.3795,-8.3925,-8.4002,-8.3951,-8.4458,-8.4322,-8.4384,-8.4556,-8.5061,-8.5086,-8.511,-8.5248,-8.5296,-8.5336,0,0,0,0,0,0,-8.2958,-8.3037,-8.3166,-8.3329,-8.3404,-8.3817,-8.3649,-8.3664,-8.3782,-8.3768,-8.3938,-8.3956,-8.3985,-8.4292,-8.4348,-8.451,-8.4239,-8.5071,-8.5092,-8.5111,-8.5265,-8.5304,-8.5337,0,0,0,0,0,-8.2979,-8.3041,-8.3565,-8.3326,-8.3391,-8.3493,-8.3639,-8.3651,-8.3742,-8.3862,-8.3879,-8.3754,-8.3989,-8.4038,-8.4325,-8.4484,-8.4201,-8.4221,-8.5085,-8.5102,-8.5117,-8.5284,0,0,0,0,0,0,-8.2994,-8.3054,-8.3579,-8.3599,-8.3228,-8.347,-8.3509,-8.3639,-8.3829,-8.3848,-8.3678,-8.3665,-8.3995,-8.4032,-8.407,-8.4474,-8.4169,-8.419,-8.4203,-8.5098,-8.5111,-8.5122,0,0,0,0,0,0,-8.302,-8.3072,-8.3589,-8.3464,-8.3471,-8.3449,-8.3484,-8.3732,-8.3832,-8.3634,-8.3629,-8.367,-8.3938,-8.4029,-8.4058,-8.4444,-8.4145,-8.4165,-8.4179,-8.4188,-8.5108,-8.5119,0,0,0,0,0,0,-8.3042,-8.3087,-8.3459,-8.3464,-8.3469,-8.3705,-8.3669,-8.4006,-8.3725,-8.3626,-8.3701,-8.3689,-8.3937,-8.3966,-8.4051,-8.4425,-8.4439,-8.4146,-8.416,-8.4169,-8.4176,0,0,0,0,0,0,0,-8.306,-8.2757,-8.3456,-8.3464,-8.3468,-8.3792,-8.3797,-8.3803,-8.3723,-8.3713,-8.3703,-8.3694,-8.403,-8.4052,-8.4075,-8.4409,0,0,-8.4144,-8.4154,0,0,0,0,0,0,0,0,-8.2739,-8.2752,-8.3456,-8.3461,-8.3465,-8.3793,-8.3797,-8.3802,-8.3721,-8.3713,-8.3705,-8.3698,-8.4036,-8.4054,-8.4072,0,0,0,0,0,0,0,0,0,0,0,0,0,0,0,-8.3457,-8.346,0,-8.3793,-8.3797,-8.3801,-8.372,-8.3713,-8.3707,-8.3701,-8.4041,-8.4056,-8.4071,0,0,0,0,0,0,0,0,0,0,0,0,0,0,0,0,0,0,0,0,0,0,0,0,0,0,0,0,0,0,0,0,0,0,0,0,0,0,0,0,0,0,0,0,0,0,0,0,0,0,0,0,0,0,0,0,0,0,0,0,0,0,0,0,0,0,0,0,0]}]]]